Location: Krakow
(50.0830°N, 19.9170°E)
Time: 20:29:15
(UTC+01:00)

Altair - Pass Details

Date: 04 December 2023
Orbit: 1501 x 1682 km, 47.2° (Epoch: 03 March)

Event Time Altitude Azimuth Distance (km) Brightness Sun altitude
Rises 06:30:33 0° 191° (SSW) 4,839 10.3 -7.8°
Reaches altitude 10° 06:34:37 10° 178° (S) 3,827 10.0 -7.2°
Maximum altitude 06:41:28 22° 132° (SE) 2,930 10.2 -6.2°
Drops below altitude 10° 06:48:08 10° 86° (E) 3,735 10.6 -5.3°
Sets 06:52:00 0° 73° (ENE) 4,696 10.8 -4.7°
